EW6103 Weather Reports


Display with metric or nautical units.
time (UTC)temp
F
wind
direction
speed
MPH
gust
MPH
rain 1hr
in
rain 24hr
in
rain mn
in
humidity
%
barometer
mb
20220520080006 71 135 4.0 7.0 0.00 0.00 0.00 64 1021.1
20220520072006 70 270 6.0 10.0 0.00 0.00 0.00 66 1021.3
20220520071007 70 135 3.0 5.0 0.00 0.00 0.00 63 1021.2
20220520064009 66 270 2.0 4.0 0.00 0.00 0.00 66 1021.5
20220520061007 63 135 1.0 3.0 0.00 0.00 0.00 65 1021.7
20220520060009 63 90 1.0 2.0 0.00 0.00 0.00 66 1021.7
20220520055008 62 180 1.0 2.0 0.00 0.00 0.00 68 1021.6
20220520054006 61 90 1.0 2.0 0.00 0.00 0.00 64 1021.6
20220520053007 60 45 0.0 2.0 0.00 0.00 0.00 66 1021.7
20220520051006 58 135 0.0 1.0 0.00 0.00 0.00 75 1021.7
20220520050008 58 135 0.0 1.0 0.00 0.00 0.00 77 1021.6
20220520044007 58 225 0.0 1.0 0.00 0.00 0.00 73 1021.3
20220520035007 56 135 0.0 1.0 0.00 0.00 0.00 71 1021.2
20220520034008 56 180 0.0 1.0 0.00 0.00 0.00 68 1021.0
20220520033008 57 45 1.0 2.0 0.00 0.00 0.00 63 1020.7
20220520031006 57 45 1.0 3.0 0.00 0.00 0.00 61 1020.4
20220520030007 56 90 1.0 4.0 0.00 0.00 0.00 63 1020.4
20220520024007 55 45 1.0 3.0 0.00 0.00 0.00 68 1020.5
20220520023007 55 45 1.0 3.0 0.00 0.00 0.00 68 1020.7
20220520015031 52 90 0.0 1.0 0.00 0.00 0.00 79 1021.3
20220520014008 53 45 0.0 2.0 0.00 0.00 0.00 80 1021.5
20220520012010 52 270 2.0 4.0 0.00 0.00 0.00 82 1021.8
20220520010009 53 0 0.0 2.0 0.00 0.00 0.00 77 1021.3
20220520004009 54 0 0.0 2.0 0.00 0.00 0.00 73 1021.4
20220520003008 54 45 0.0 1.0 0.00 0.00 0.00 72 1021.4
20220520001006 55 0 2.0 3.0 0.00 0.00 0.00 69 1021.1
20220519235007 55 0 0.0 0.0 0.00 0.00 0.00 69 1020.6
20220519234007 55 0 0.0 1.0 0.00 0.00 0.00 67 1020.7
20220519233007 55 45 0.0 1.0 0.00 0.00 0.00 67 1020.8
20220519232006 55 45 0.0 2.0 0.00 0.00 0.00 69 1020.8
20220519231008 53 90 1.0 2.0 0.00 0.00 0.00 77 1021.0
20220519225008 53 0 0.0 2.0 0.00 0.00 0.00 74 1021.4
20220519223009 53 0 0.0 2.0 0.00 0.00 0.00 76 1021.2
20220519220007 54 0 1.0 3.0 0.00 0.00 0.00 71 1021.0
20220519214008 53 0 0.0 0.0 0.00 0.00 0.00 75 1020.8
20220519213007 54 0 0.0 1.0 0.00 0.00 0.00 73 1021.0
20220519212006 54 45 0.0 1.0 0.00 0.00 0.00 74 1020.9
20220519211007 54 0 0.0 1.0 0.00 0.00 0.00 72 1021.0
20220519210007 55 0 0.0 1.0 0.00 0.00 0.00 72 1021.0
20220519205007 56 90 0.0 1.0 0.00 0.00 0.00 70 1020.9
20220519203007 58 90 0.0 1.0 0.00 0.00 0.00 66 1020.9
20220519195009 60 135 1.0 2.0 0.00 0.00 0.00 62 1021.0
20220519194008 61 135 1.0 2.0 0.00 0.00 0.00 61 1021.0
20220519193008 61 135 0.0 2.0 0.00 0.00 0.00 61 1021.0
20220519192012 62 135 1.0 3.0 0.00 0.00 0.00 62 1021.0
20220519184008 64 90 1.0 2.0 0.00 0.00 0.00 60 1020.6
20220519182011 67 135 2.0 4.0 0.00 0.00 0.00 52 1020.4
20220519181009 68 135 2.0 4.0 0.00 0.00 0.00 51 1020.3
20220519180009 69 135 2.0 4.0 0.00 0.00 0.00 51 1020.3
20220519175009 70 90 2.0 5.0 0.00 0.00 0.00 50 1020.0
20220519174007 70 180 2.0 4.0 0.00 0.00 0.00 49 1020.0
20220519172006 71 135 2.0 5.0 0.00 0.00 0.00 49 1019.7
20220519170007 73 135 3.0 5.0 0.00 0.00 0.00 49 1019.7
20220519165008 74 90 2.0 5.0 0.00 0.00 0.00 48 1019.8
20220519162007 76 90 3.0 5.0 0.00 0.00 0.00 47 1019.7
20220519161007 76 90 3.0 5.0 0.00 0.00 0.00 46 1019.9
20220519160007 76 135 4.0 7.0 0.00 0.00 0.00 46 1019.9
20220519155008 76 90 4.0 9.0 0.00 0.00 0.00 45 1020.0
20220519154006 77 135 3.0 7.0 0.00 0.00 0.00 45 1020.0
20220519153013 78 90 4.0 7.0 0.00 0.00 0.00 43 1020.1
20220519152007 78 90 4.0 8.0 0.00 0.00 0.00 42 1020.2
20220519151010 78 225 5.0 8.0 0.00 0.00 0.00 40 1020.2
20220519144007 79 135 4.0 7.0 0.00 0.00 0.00 40 1020.6
20220519143007 79 135 4.0 7.0 0.00 0.00 0.00 43 1020.6
20220519142008 79 90 4.0 7.0 0.00 0.00 0.00 42 1020.7
20220519135008 78 90 4.0 8.0 0.00 0.00 0.00 39 1021.0
20220519132006 78 180 3.0 5.0 0.00 0.00 0.00 42 1021.3
20220519130008 77 135 3.0 7.0 0.00 0.00 0.00 40 1021.6
20220519123007 76 180 4.0 11.0 0.00 0.00 0.00 41 1021.8
20220519122006 76 90 4.0 6.0 0.00 0.00 0.00 41 1022.1
20220519114006 74 180 3.0 6.0 0.00 0.00 0.00 39 1022.6
20220519113007 75 90 4.0 9.0 0.00 0.00 0.00 42 1022.6
20220519112006 74 135 4.0 9.0 0.00 0.00 0.00 44 1022.6
20220519110007 75 180 3.0 7.0 0.00 0.00 0.00 42 1022.9
20220519105006 75 45 4.0 7.0 0.00 0.00 0.00 46 1023.1
20220519103008 74 180 4.0 8.0 0.00 0.00 0.00 45 1023.4
20220519101006 73 180 4.0 10.0 0.00 0.00 0.00 45 1023.6
20220519095008 73 90 3.0 10.0 0.00 0.00 0.00 45 1023.7
20220519093007 72 135 3.0 4.0 0.00 0.00 0.00 44 1024.0
20220519092010 71 90 3.0 6.0 0.00 0.00 0.00 42 1024.2
20220519091007 70 180 2.0 5.0 0.00 0.00 0.00 46 1024.3
20220519090009 70 135 3.0 5.0 0.00 0.00 0.00 43 1024.4
20220519085006 69 135 3.0 6.0 0.00 0.00 0.00 43 1024.6
20220519083012 68 90 2.0 5.0 0.00 0.00 0.00 45 1024.8